User: anonymous   Login
Location: Gollag?dem
(16.8053°N, 80.8024°E)
Time: 10:41:59
(UTC+00:00)
Language:

DELTA 2 R/B (1) - Orbit

View from above orbital plane
View from above orbital plane
View from above satellite
View from above satellite

Ground track
Ground track

The orbit data is extracted from the following two-line orbital elements,

1 27665U 03005C   20299.67287560 -.00000077 +00000-0 +33748-5 0  9992
2 27665 039.5772 344.7581 0009383 321.5264 189.9134 14.28535069926262
Epoch (UTC): 25 October 2020 16:08:56
Eccentricity: 0.0009383
inclination: 39.5772°
perigee height: 790 km
apogee height: 803 km
right ascension of ascending node: 344.7581°
argument of perigee: 321.5264°
revolutions per day: 14.28535069
mean anomaly at epoch: 189.9134°
orbit number at epoch: 92626

The dashed part of the orbit path shows where the satellite is in the earth's shadow,  

DLR